Wind_Speed
4 4 4 4 3 3 3 2 4 7 9 8 9 11 12 12 12 11 10 9 8 7 7 6 6 6 5 5 5 5 5 5 5 5 4 4 4 4 5 5 6 7 7 7 7 7 7 7 7
7 6 6 7 7 7 6 6 4 5 7 8 9 11 12 12 13 12 11 10 8 7 7 6 5 5 5 5 5 5 6 6 6 7 7 7 7 8 9 9 9 9 9 9 9 9 8 6 5
9 8 8 9 10 10 8 8 6 5 5 6 9 11 12 13 14 13 12 10 9 8 8 6 5 5 6 6 7 7 7 8 8 8 9 10 10 11 12 12 12 12 12 12 12 11 10 9 7
10 11 11 12 12 12 10 9 9 8 7 7 9 12 13 14 14 14 13 11 11 10 10 8 7 7 7 8 9 9 9 10 10 11 11 12 13 13 14 14 14 14 14 15 15 15 13 12 11
12 13 14 15 15 14 12 11 11 9 8 9 10 13 15 15 15 15 14 13 12 12 11 10 10 10 10 10 10 11 11 11 12 12 13 13 14 15 15 15 15 15 16 17 17 17 17 15 14
14 15 16 17 18 16 15 13 12 10 9 10 13 15 16 16 16 16 16 15 14 13 12 12 12 12 12 12 12 12 13 13 13 14 14 14 14 15 16 17 17 17 18 18 19 19 19 19 18
16 17 18 21 21 20 18 16 15 13 11 12 14 16 18 18 18 18 17 16 15 15 14 14 14 14 14 14 14 14 14 15 15 15 15 15 15 16 17 18 19 19 19 20 20 20 21 21 20
18 18 21 24 25 23 21 19 18 17 14 14 15 18 19 20 20 19 18 17 17 18 18 17 18 18 17 17 16 17 17 18 17 17 17 17 17 18 19 20 21 21 22 22 22 23 23 23 22
20 20 24 27 27 26 25 23 21 21 18 17 18 19 21 21 21 20 19 19 19 20 21 21 21 21 20 20 20 21 21 21 21 21 20 20 20 20 21 22 23 23 24 23 24 24 24 24 24
22 22 26 31 31 30 28 26 25 24 22 22 22 23 23 24 24 22 21 21 21 23 24 24 24 23 23 24 25 25 25 25 26 25 23 22 21 22 23 23 25 25 26 26 26 26 26 25 25
25 24 28 33 35 34 32 31 29 28 27 26 26 26 26 26 25 24 23 22 22 23 25 25 24 24 24 25 26 27 27 28 28 27 25 24 23 23 25 26 27 27 28 28 28 27 27 28 27
27 27 30 33 35 36 35 34 33 32 31 30 29 29 28 27 26 24 21 21 20 21 23 23 24 24 23 24 25 26 26 26 27 25 24 25 25 25 27 27 28 29 29 29 28 28 29 29 29
27 27 29 31 34 36 36 36 35 35 34 33 32 31 29 28 25 22 20 19 19 19 20 21 23 23 24 25 25 25 26 26 25 26 27 27 27 27 29 30 30 30 30 30 29 29 30 30 30
23 24 26 28 32 34 35 35 35 34 35 34 33 31 29 27 24 22 19 18 18 18 20 21 22 23 24 25 26 26 27 27 28 28 29 29 30 30 30 31 31 31 31 31 31 30 30 30 30
18 19 21 24 28 31 33 33 34 33 33 33 32 30 29 27 25 23 20 19 18 19 20 21 23 24 25 26 27 28 28 28 28 28 29 29 30 30 30 31 32 32 32 32 32 32 31 31 30
15 16 18 20 23 27 29 30 30 30 31 31 30 30 28 27 25 23 22 20 19 19 20 21 22 23 24 25 26 27 27 28 28 29 30 30 31 31 31 32 32 32 32 32 32 32 31 31 30
13 14 15 17 18 21 23 25 25 26 28 28 28 28 27 25 23 21 20 19 19 19 19 20 22 23 25 26 27 27 28 29 29 30 30 31 31 31 32 32 32 33 33 33 33 32 32 32 31
10 12 13 13 14 15 17 19 21 23 24 25 26 25 24 23 22 20 19 18 18 19 20 21 23 25 26 26 27 28 28 29 29 30 30 31 31 31 32 32 33 33 33 34 34 34 33 33 33
8 9 9 9 9 10 13 15 17 18 20 21 21 21 21 20 19 18 17 17 18 19 21 22 24 25 26 27 28 29 29 30 30 30 30 30 31 31 32 32 33 34 34 35 35 35 35 35 34
5 5 5 6 6 8 9 11 11 12 13 13 13 13 14 15 14 14 15 17 19 20 21 23 24 26 27 28 29 30 30 31 31 30 30 30 30 30 31 31 32 33 33 34 34 34 35 35 35
3 4 3 3 4 4 6 6 6 6 5 3 4 5 8 8 10 12 13 16 17 19 21 23 25 26 27 28 29 30 31 31 31 31 30 30 29 29 30 30 31 32 32 33 33 34 34 34 35
4 3 2 3 3 3 5 6 8 7 4 4 2 3 4 5 7 10 12 15 17 19 21 23 24 26 27 28 29 29 30 30 31 31 30 30 30 29 29 29 30 30 31 32 32 33 33 33 34
5 4 3 3 2 2 4 6 8 9 7 5 4 4 4 5 7 10 13 15 17 19 20 21 22 24 25 25 26 27 28 28 28 28 29 29 29 29 29 29 30 30 31 32 32 32 32 32 33
5 4 3 3 2 1 2 4 5 6 6 4 4 5 6 7 9 11 13 15 16 17 18 20 21 22 23 23 24 25 26 26 26 27 28 28 29 29 30 31 32 32 33 33 34 34 34 34 34
6 5 5 4 3 3 2 3 4 5 5 5 6 7 7 8 9 11 12 14 15 16 18 19 21 22 23 24 25 25 25 26 26 27 28 29 30 31 32 33 34 34 35 36 36 36 36 36 35
7 7 7 6 5 4 4 4 6 7 7 8 8 8 8 9 10 11 12 13 15 16 18 20 22 23 25 25 26 26 26 26 27 27 28 30 31 32 34 35 36 36 37 37 37 38 38 38 37
8 9 8 6 5 4 4 5 7 9 9 9 9 8 9 9 10 12 13 14 16 18 20 22 23 24 25 26 27 27 28 28 28 29 30 31 33 34 35 37 37 38 38 38 38 38 39 38 39
9 10 9 6 5 4 4 4 6 8 9 9 9 9 9 10 11 12 14 17 19 21 23 24 25 26 27 27 28 29 30 31 31 32 33 34 35 36 37 37 38 39 39 39 39 39 39 39 39
9 10 9 8 7 6 5 5 7 8 9 10 10 10 11 12 13 15 18 20 22 24 25 26 27 28 28 30 31 31 33 34 34 35 36 37 37 38 38 38 38 39 39 38 38 38 38 38 38
10 11 11 9 8 7 7 8 8 9 10 11 12 12 13 14 16 18 21 23 24 26 27 28 29 30 31 32 33 34 35 36 38 38 39 39 40 40 40 39 39 38 38 37 37 37 37 37 37
Wind_Direction
315 277 259 250 238 248 276 338 24 35 36 25 14 8 360 355 353 350 351 353 349 336 330 331 340 349 355 359 357 353 348 341 338 336 335 331 326 320 317 317 316 316 317 322 327 333 344 358 10
321 294 269 258 253 258 272 289 328 18 23 16 8 2 357 359 356 350 346 346 335 318 314 320 331 340 344 345 343 335 326 320 317 316 315 312 311 308 306 304 303 303 303 303 305 309 312 320 334
314 296 274 264 257 261 271 287 306 327 350 359 1 360 356 353 350 346 341 334 321 308 302 302 309 313 318 320 318 315 312 307 305 305 304 303 303 302 302 301 300 299 298 296 294 294 294 295 297
299 288 271 262 259 264 268 277 292 302 312 327 341 343 341 340 340 337 334 327 318 308 299 295 293 294 297 300 299 298 299 298 298 299 298 298 299 299 299 299 298 297 296 294 291 287 286 283 281
286 277 267 260 258 262 262 267 280 286 298 308 322 326 325 326 328 328 324 319 313 307 299 293 292 289 288 288 290 292 293 295 296 297 299 299 298 297 299 299 298 297 295 294 291 287 283 280 275
276 270 258 251 256 259 256 261 264 271 284 297 308 310 313 316 318 319 317 311 305 300 295 290 290 288 284 283 286 289 291 294 295 295 297 299 299 296 296 298 298 297 297 296 292 289 285 281 275
271 263 250 247 250 253 252 253 253 263 276 289 297 299 303 306 310 312 310 303 295 289 285 282 283 284 282 284 286 288 289 291 292 292 293 294 295 294 295 296 296 297 297 296 293 291 287 284 278
267 255 241 239 243 247 249 248 251 258 267 278 284 289 294 298 303 306 304 296 286 280 278 277 277 278 278 279 282 283 284 286 286 284 285 287 289 290 291 294 295 294 293 293 292 290 289 286 282
262 248 234 234 238 243 246 247 252 257 263 271 278 284 290 294 298 299 296 289 282 275 274 273 273 273 273 272 275 278 279 280 279 277 278 280 283 285 288 290 292 292 291 290 289 289 288 287 285
256 243 230 232 237 241 244 248 254 258 265 273 280 285 289 292 294 294 290 283 278 275 273 271 271 270 270 270 271 273 274 275 274 272 273 275 278 282 285 288 289 290 289 287 286 286 286 287 284
250 240 232 232 237 241 244 250 256 261 267 274 281 287 290 292 294 293 289 283 279 277 274 275 275 275 277 274 273 276 278 277 276 276 271 272 276 281 285 285 286 288 288 286 284 283 283 283 283
246 239 234 234 238 242 246 251 256 262 268 275 281 287 291 293 294 292 288 286 286 286 284 284 284 284 284 284 282 282 282 282 283 286 284 281 282 284 286 285 286 287 287 286 283 282 281 281 281
243 239 235 234 237 242 247 251 257 263 269 275 282 289 292 294 295 292 289 289 289 290 289 290 289 288 289 289 289 287 284 284 285 286 287 288 287 286 285 286 286 286 285 284 282 282 281 280 280
242 240 238 235 237 242 247 253 259 264 271 277 283 289 291 293 294 290 289 288 287 287 288 290 288 287 288 289 290 291 290 289 288 288 287 286 286 285 285 286 285 284 283 282 281 281 280 279 278
244 242 241 240 240 244 249 254 260 267 273 279 283 287 288 291 293 289 289 287 285 285 286 288 289 289 290 291 291 292 291 291 292 291 290 288 286 285 284 284 283 282 280 280 279 279 278 276 275
248 247 245 246 247 249 254 258 263 269 274 278 281 285 287 289 291 289 290 290 289 289 291 292 293 294 295 296 296 296 296 295 295 294 292 290 288 287 285 284 283 281 279 278 278 277 276 275 273
252 254 257 257 260 263 264 266 269 273 275 276 279 282 283 286 289 292 293 293 294 295 297 298 300 300 301 301 301 300 300 299 297 296 294 293 291 289 287 285 283 282 281 280 279 277 275 273 271
261 264 268 270 275 276 277 275 273 274 276 276 275 274 275 280 287 290 293 295 297 300 303 305 307 307 307 307 306 306 305 303 301 299 298 296 294 292 290 288 286 284 283 281 280 278 276 273 271
272 278 278 278 279 287 289 283 277 274 278 276 271 268 270 275 282 289 293 298 304 308 311 313 313 313 313 312 311 310 309 307 305 303 301 299 296 294 292 290 288 287 285 283 280 278 276 274 271
296 292 294 284 284 289 298 292 287 282 280 272 269 266 265 274 284 291 296 302 309 313 316 317 317 316 316 314 313 311 310 308 306 304 302 300 298 296 294 292 290 287 285 283 281 279 277 275 272
329 325 320 314 312 334 341 337 324 317 308 286 273 270 271 280 291 302 306 309 313 316 317 317 316 315 314 312 310 309 308 307 306 304 302 301 299 297 295 292 291 289 287 285 283 280 278 275 272
351 354 333 328 340 11 23 29 30 35 42 44 21 321 309 307 313 316 316 317 317 317 316 315 313 312 310 308 307 307 306 305 305 304 303 302 300 298 297 295 293 291 289 287 285 282 279 276 273
342 358 339 327 349 30 41 42 50 49 50 51 39 15 349 332 326 321 318 316 315 314 313 312 311 310 310 309 309 310 309 308 308 306 305 304 303 302 300 299 297 295 292 289 286 283 280 276 273
339 329 325 319 309 329 31 29 36 27 23 15 357 341 331 323 320 317 313 312 312 312 312 313 315 316 318 318 318 318 318 317 315 313 312 310 308 307 305 302 300 297 294 291 287 283 279 276 272
336 332 326 311 294 287 295 333 350 343 337 331 327 322 316 313 313 313 313 314 315 318 322 325 327 329 329 329 328 327 326 324 322 321 318 316 314 312 309 306 303 299 295 291 287 283 278 275 271
339 340 334 327 316 288 282 301 315 312 311 310 313 313 313 314 316 317 320 323 328 333 335 336 336 336 336 336 335 333 332 330 327 325 323 320 317 315 312 309 305 301 297 292 288 283 278 274 270
326 333 332 330 329 315 302 291 291 291 294 299 307 313 319 320 322 326 330 335 340 342 343 342 341 340 340 339 338 337 335 333 330 328 326 323 320 317 314 310 306 302 298 293 288 283 278 274 269
315 322 323 320 327 328 312 294 284 280 289 301 312 320 325 326 330 337 343 346 348 348 346 345 344 342 341 341 340 339 337 335 333 330 328 326 323 320 317 312 307 303 299 294 289 284 279 274 269
306 310 311 310 314 319 318 313 297 294 299 306 316 323 327 333 340 346 350 351 350 349 347 345 343 341 340 339 339 338 336 335 333 332 330 327 325 322 319 315 310 305 301 296 291 286 281 276 271
288 296 300 303 311 318 322 324 313 311 312 317 322 327 333 338 342 346 349 350 348 346 344 342 341 339 338 337 337 337 336 335 334 332 331 329 326 324 320 317 312 307 302 298 293 288 283 277 272
Height
5918 5918 5918 5918 5918 5917 5916 5916 5915 5915 5914 5914 5914 5914 5914 5914 5914 5915 5912 5910 5909 5908 5907 5907 5906 5905 5904 5904 5903 5903 5903 5903 5903 5903 5903 5904 5904 5904 5904 5903 5903 5903 5903 5903 5902 5902 5902 5902 5901
5917 5917 5918 5917 5916 5916 5916 5915 5915 5915 5915 5914 5914 5913 5913 5913 5913 5912 5911 5910 5909 5908 5907 5906 5905 5904 5904 5903 5903 5903 5902 5902 5902 5902 5902 5902 5902 5902 5902 5902 5902 5901 5901 5901 5901 5901 5901 5900 5900
5916 5916 5916 5915 5914 5914 5914 5914 5914 5914 5914 5913 5913 5913 5913 5913 5912 5911 5910 5909 5909 5908 5907 5905 5904 5903 5903 5902 5902 5902 5902 5901 5901 5901 5901 5901 5900 5900 5900 5900 5899 5899 5899 5899 5899 5899 5899 5899 5898
5916 5915 5914 5913 5911 5911 5911 5912 5913 5913 5913 5912 5912 5912 5911 5912 5911 5911 5910 5909 5908 5907 5906 5904 5903 5902 5902 5901 5901 5900 5900 5900 5900 5899 5899 5899 5898 5898 5897 5897 5897 5896 5896 5896 5896 5896 5896 5896 5896
5914 5913 5911 5910 5908 5908 5909 5910 5910 5910 5911 5910 5910 5910 5909 5910 5909 5909 5908 5907 5907 5906 5904 5903 5902 5901 5900 5900 5899 5898 5898 5898 5897 5897 5897 5896 5896 5895 5895 5894 5894 5893 5893 5893 5893 5892 5893 5893 5893
5912 5910 5909 5906 5905 5906 5906 5907 5908 5908 5908 5908 5908 5908 5907 5907 5907 5907 5906 5905 5904 5903 5902 5901 5900 5899 5898 5898 5897 5897 5896 5896 5895 5895 5894 5893 5893 5892 5892 5891 5890 5890 5890 5889 5889 5889 5889 5889 5889
5909 5907 5905 5903 5902 5902 5903 5903 5904 5904 5905 5905 5906 5905 5905 5904 5904 5904 5903 5902 5901 5900 5900 5899 5898 5897 5896 5895 5895 5894 5893 5893 5892 5892 5891 5890 5890 5889 5889 5888 5887 5887 5886 5886 5885 5884 5884 5884 5885
5905 5905 5902 5899 5898 5898 5899 5899 5900 5901 5901 5902 5903 5902 5902 5902 5901 5901 5900 5899 5899 5897 5896 5895 5894 5894 5893 5892 5891 5891 5890 5889 5888 5888 5887 5887 5886 5886 5885 5884 5884 5883 5882 5882 5881 5880 5880 5880 5880
5900 5901 5898 5895 5894 5894 5895 5896 5896 5897 5898 5898 5899 5899 5899 5898 5898 5897 5896 5896 5895 5894 5893 5891 5890 5889 5888 5888 5887 5887 5886 5885 5884 5883 5883 5883 5882 5882 5881 5880 5879 5879 5878 5877 5877 5876 5876 5875 5875
5894 5895 5893 5891 5890 5890 5891 5892 5893 5893 5894 5895 5895 5895 5894 5894 5893 5893 5892 5891 5890 5889 5888 5887 5886 5885 5884 5883 5883 5881 5880 5879 5878 5877 5877 5877 5877 5877 5876 5875 5874 5874 5873 5873 5872 5871 5871 5870 5870
5887 5888 5887 5886 5886 5886 5887 5888 5889 5890 5890 5891 5891 5890 5890 5889 5889 5888 5887 5886 5885 5884 5883 5882 5881 5880 5878 5878 5877 5876 5875 5873 5872 5871 5870 5871 5871 5871 5870 5870 5869 5868 5868 5867 5867 5866 5866 5865 5865
5879 5880 5881 5882 5882 5883 5884 5885 5885 5885 5886 5886 5886 5886 5886 5885 5884 5883 5882 5881 5880 5879 5878 5877 5876 5874 5872 5872 5871 5870 5869 5867 5866 5866 5865 5865 5865 5864 5864 5864 5863 5862 5861 5861 5861 5860 5860 5859 5859
5873 5874 5876 5877 5878 5879 5880 5881 5881 5881 5881 5881 5881 5881 5881 5880 5880 5879 5877 5876 5875 5874 5873 5872 5871 5869 5868 5867 5866 5865 5864 5862 5862 5862 5861 5860 5859 5859 5858 5857 5856 5855 5855 5854 5854 5853 5853 5853 5853
5868 5870 5872 5874 5875 5875 5876 5877 5878 5877 5877 5877 5877 5877 5876 5875 5875 5874 5873 5872 5871 5870 5869 5868 5867 5865 5864 5863 5862 5861 5860 5859 5858 5857 5856 5854 5853 5853 5852 5851 5849 5848 5847 5847 5846 5846 5846 5846 5846
5866 5868 5869 5871 5872 5873 5874 5875 5874 5874 5874 5874 5873 5872 5872 5871 5869 5868 5867 5867 5866 5865 5865 5864 5862 5861 5860 5859 5857 5856 5855 5853 5852 5851 5849 5848 5847 5846 5845 5843 5842 5841 5840 5840 5839 5839 5839 5839 5839
5866 5867 5868 5869 5869 5870 5873 5872 5872 5871 5871 5870 5868 5867 5866 5866 5865 5864 5863 5862 5862 5861 5860 5859 5858 5856 5855 5854 5852 5850 5849 5847 5846 5844 5842 5841 5839 5838 5837 5836 5834 5833 5832 5832 5831 5831 5831 5831 5831
5865 5866 5866 5868 5868 5868 5869 5868 5868 5867 5866 5865 5864 5862 5861 5861 5860 5859 5859 5858 5857 5856 5855 5853 5852 5851 5850 5848 5846 5844 5842 5840 5839 5837 5835 5833 5832 5830 5829 5827 5826 5825 5824 5823 5823 5822 5822 5822 5823
5865 5865 5866 5866 5866 5866 5865 5864 5863 5861 5860 5858 5858 5857 5857 5857 5857 5856 5855 5854 5853 5851 5850 5848 5847 5845 5844 5842 5840 5838 5836 5834 5832 5830 5828 5826 5824 5822 5821 5819 5817 5816 5815 5814 5814 5814 5813 5814 5814
5865 5865 5865 5865 5864 5863 5861 5859 5857 5856 5854 5852 5851 5852 5852 5853 5853 5853 5852 5851 5849 5848 5846 5844 5842 5840 5838 5836 5834 5832 5829 5827 5825 5823 5820 5818 5817 5815 5813 5811 5809 5808 5807 5805 5805 5804 5804 5804 5804
5865 5865 5864 5863 5862 5860 5858 5856 5853 5851 5849 5847 5847 5848 5849 5850 5851 5850 5849 5848 5846 5844 5842 5840 5838 5836 5833 5831 5828 5826 5823 5821 5818 5816 5813 5811 5809 5807 5805 5803 5801 5800 5798 5797 5796 5795 5795 5795 5795
5864 5864 5863 5862 5861 5859 5857 5854 5851 5849 5846 5845 5845 5846 5847 5848 5848 5848 5847 5845 5844 5841 5839 5837 5834 5832 5829 5826 5823 5820 5817 5814 5812 5809 5806 5804 5802 5800 5798 5796 5794 5792 5790 5789 5787 5786 5786 5786 5785
5864 5864 5862 5861 5860 5858 5857 5854 5851 5848 5846 5846 5846 5846 5847 5847 5847 5846 5845 5844 5842 5839 5837 5834 5831 5829 5825 5822 5819 5815 5812 5808 5805 5802 5799 5797 5795 5793 5791 5788 5786 5784 5782 5780 5779 5778 5777 5777 5776
5864 5863 5862 5861 5860 5859 5857 5855 5854 5851 5849 5848 5848 5847 5847 5847 5846 5845 5844 5842 5840 5837 5834 5832 5829 5825 5821 5817 5813 5809 5806 5802 5799 5795 5792 5790 5787 5785 5783 5781 5778 5776 5774 5772 5770 5769 5768 5768 5767
5864 5863 5862 5861 5860 5859 5858 5857 5855 5853 5851 5850 5850 5849 5848 5847 5846 5844 5843 5841 5838 5835 5832 5828 5824 5820 5816 5812 5808 5804 5800 5796 5793 5789 5786 5783 5780 5777 5775 5772 5770 5767 5765 5763 5761 5760 5759 5758 5758
5864 5863 5862 5860 5859 5859 5858 5856 5856 5854 5852 5851 5850 5849 5848 5847 5845 5844 5841 5838 5835 5831 5828 5824 5820 5815 5811 5807 5802 5798 5794 5791 5787 5783 5780 5776 5773 5769 5766 5764 5761 5758 5755 5753 5751 5749 5748 5748 5748
5862 5862 5861 5860 5858 5857 5856 5856 5856 5853 5852 5850 5849 5848 5847 5845 5843 5841 5838 5835 5831 5827 5823 5819 5815 5811 5806 5802 5798 5793 5789 5785 5782 5778 5774 5770 5766 5762 5758 5754 5751 5748 5745 5742 5740 5738 5737 5737 5737
5861 5860 5859 5858 5857 5856 5855 5855 5854 5851 5850 5849 5848 5846 5845 5843 5841 5838 5835 5831 5827 5823 5819 5815 5811 5806 5802 5798 5793 5789 5785 5781 5776 5772 5768 5764 5759 5755 5750 5746 5741 5737 5734 5731 5729 5727 5725 5725 5725
5861 5859 5858 5857 5856 5855 5854 5853 5852 5849 5848 5847 5845 5844 5842 5840 5837 5834 5830 5826 5822 5818 5814 5810 5806 5802 5797 5793 5789 5784 5780 5775 5771 5766 5762 5757 5752 5747 5741 5736 5731 5727 5723 5720 5717 5715 5714 5713 5713
5859 5858 5857 5856 5855 5854 5852 5853 5850 5848 5846 5845 5843 5841 5839 5836 5833 5830 5825 5821 5817 5813 5809 5805 5801 5797 5793 5789 5784 5779 5774 5769 5764 5759 5754 5749 5743 5738 5732 5727 5721 5716 5712 5708 5705 5703 5701 5701 5700
5857 5856 5856 5855 5853 5851 5850 5852 5847 5845 5843 5841 5840 5837 5835 5832 5828 5824 5820 5816 5812 5809 5805 5801 5797 5793 5788 5784 5779 5773 5768 5763 5757 5752 5746 5741 5735 5729 5723 5717 5711 5706 5701 5697 5694 5691 5689 5688 5688